Year,Month,Day,Hour,Minute,Value (Times are PST for temperature in C)
2008,07,11,00,00,12.30
2008,07,11,00,01,12.30
2008,07,11,00,02,12.30
2008,07,11,00,03,12.30
2008,07,11,00,04,12.30
2008,07,11,00,05,12.30
2008,07,11,00,06,12.30
2008,07,11,00,07,12.20
2008,07,11,00,08,12.20
2008,07,11,00,09,12.20
2008,07,11,00,10,12.10
2008,07,11,00,11,12.10
2008,07,11,00,12,12.10
2008,07,11,00,13,12.10
2008,07,11,00,14,12.10
2008,07,11,00,15,12.10
2008,07,11,00,16,12.00
2008,07,11,00,17,12.00
2008,07,11,00,18,11.90
2008,07,11,00,19,11.90
2008,07,11,00,20,11.90
2008,07,11,00,21,11.90
2008,07,11,00,22,11.90
2008,07,11,00,23,11.90
2008,07,11,00,24,11.80
2008,07,11,00,25,11.80
2008,07,11,00,26,11.80
2008,07,11,00,27,11.80
2008,07,11,00,28,11.80
2008,07,11,00,29,11.80
2008,07,11,00,30,11.80
2008,07,11,00,31,11.80
2008,07,11,00,32,11.80
2008,07,11,00,33,11.70
2008,07,11,00,34,11.70
2008,07,11,00,35,11.70
2008,07,11,00,36,11.70
2008,07,11,00,37,11.70
2008,07,11,00,38,11.70
2008,07,11,00,39,11.70
2008,07,11,00,40,11.60
2008,07,11,00,41,11.60
2008,07,11,00,42,11.60
2008,07,11,00,43,11.60
2008,07,11,00,44,11.60
2008,07,11,00,45,11.60
2008,07,11,00,46,11.60
2008,07,11,00,47,11.40
2008,07,11,00,48,11.40
2008,07,11,00,49,11.40
2008,07,11,00,50,11.40
2008,07,11,00,51,11.40
2008,07,11,00,52,11.40
2008,07,11,00,53,11.40
2008,07,11,00,54,11.40
2008,07,11,00,55,11.40
2008,07,11,00,56,11.40
2008,07,11,00,57,11.30
2008,07,11,00,58,11.30
2008,07,11,00,59,11.30
2008,07,11,01,00,11.30
2008,07,11,01,01,11.20
2008,07,11,01,02,11.20
2008,07,11,01,03,11.20
2008,07,11,01,04,11.20
2008,07,11,01,05,11.10
2008,07,11,01,06,11.10
2008,07,11,01,07,11.10
2008,07,11,01,08,11.10
2008,07,11,01,09,11.00
2008,07,11,01,10,10.90
2008,07,11,01,11,10.90
2008,07,11,01,12,10.90
2008,07,11,01,13,10.90
2008,07,11,01,14,10.90
2008,07,11,01,15,10.90
2008,07,11,01,16,10.90
2008,07,11,01,17,10.90
2008,07,11,01,18,10.90
2008,07,11,01,19,10.90
2008,07,11,01,20,10.80
2008,07,11,01,21,10.80
2008,07,11,01,22,10.80
2008,07,11,01,23,10.80
2008,07,11,01,24,10.80
2008,07,11,01,25,10.80
2008,07,11,01,26,10.80
2008,07,11,01,27,10.80
2008,07,11,01,28,10.80
2008,07,11,01,29,10.70
2008,07,11,01,30,10.70
2008,07,11,01,31,10.70
2008,07,11,01,32,10.70
2008,07,11,01,33,10.70
2008,07,11,01,34,10.70
2008,07,11,01,35,10.70
2008,07,11,01,36,10.70
2008,07,11,01,37,10.60
2008,07,11,01,38,10.60
2008,07,11,01,39,10.60
2008,07,11,01,40,10.60
2008,07,11,01,41,10.60
2008,07,11,01,42,10.60
2008,07,11,01,43,10.60
2008,07,11,01,44,10.60
2008,07,11,01,45,10.60
2008,07,11,01,46,10.60
2008,07,11,01,47,10.60
2008,07,11,01,48,10.50
2008,07,11,01,49,10.40
2008,07,11,01,50,10.40
2008,07,11,01,51,10.40
2008,07,11,01,52,10.40
2008,07,11,01,53,10.40
2008,07,11,01,54,10.40
2008,07,11,01,55,10.40
2008,07,11,01,56,10.40
2008,07,11,01,57,10.40
2008,07,11,01,58,10.30
2008,07,11,01,59,10.30
2008,07,11,02,00,10.30
2008,07,11,02,01,10.30
2008,07,11,02,02,10.30
2008,07,11,02,03,10.30
2008,07,11,02,04,10.20
2008,07,11,02,05,10.20
2008,07,11,02,06,10.20
2008,07,11,02,07,10.20
2008,07,11,02,08,10.10
2008,07,11,02,09,10.10
2008,07,11,02,10,10.10
2008,07,11,02,11,10.10
2008,07,11,02,12,10.10
2008,07,11,02,13,10.10
2008,07,11,02,14,10.10
2008,07,11,02,15,10.00
2008,07,11,02,16,9.90
2008,07,11,02,17,9.90
2008,07,11,02,18,9.90
2008,07,11,02,19,9.90
2008,07,11,02,20,9.90
2008,07,11,02,21,9.90
2008,07,11,02,22,9.90
2008,07,11,02,23,9.90
2008,07,11,02,24,9.80
2008,07,11,02,25,9.80
2008,07,11,02,26,9.80
2008,07,11,02,27,9.80
2008,07,11,02,28,9.80
2008,07,11,02,29,9.80
2008,07,11,02,30,9.80
2008,07,11,02,31,9.80
2008,07,11,02,32,9.70
2008,07,11,02,33,9.70
2008,07,11,02,34,9.70
2008,07,11,02,35,9.70
2008,07,11,02,36,9.70
2008,07,11,02,37,9.70
2008,07,11,02,38,9.70
2008,07,11,02,39,9.70
2008,07,11,02,40,9.70
2008,07,11,02,41,9.70
2008,07,11,02,42,9.70
2008,07,11,02,43,9.70
2008,07,11,02,44,9.70
2008,07,11,02,45,9.70
2008,07,11,02,46,9.70
2008,07,11,02,47,9.70
2008,07,11,02,48,9.70
2008,07,11,02,49,9.60
2008,07,11,02,50,9.60
2008,07,11,02,51,9.60
2008,07,11,02,52,9.60
2008,07,11,02,53,9.60
2008,07,11,02,54,9.60
2008,07,11,02,55,9.60
2008,07,11,02,56,9.60
2008,07,11,02,57,9.60
2008,07,11,02,58,9.50
2008,07,11,02,59,9.50
2008,07,11,03,00,9.50
2008,07,11,03,01,9.50
2008,07,11,03,02,9.50
2008,07,11,03,03,9.50
2008,07,11,03,04,9.50
2008,07,11,03,05,9.50
2008,07,11,03,06,9.50
2008,07,11,03,07,9.50
2008,07,11,03,08,9.50
2008,07,11,03,09,9.50
2008,07,11,03,10,9.50
2008,07,11,03,11,9.50
2008,07,11,03,12,9.50
2008,07,11,03,13,9.60
2008,07,11,03,14,9.60
2008,07,11,03,15,9.60
2008,07,11,03,16,9.60
2008,07,11,03,17,9.60
2008,07,11,03,18,9.60
2008,07,11,03,19,9.60
2008,07,11,03,20,9.60
2008,07,11,03,21,9.60
2008,07,11,03,22,9.60
2008,07,11,03,23,9.60
2008,07,11,03,24,9.60
2008,07,11,03,25,9.50
2008,07,11,03,26,9.50
2008,07,11,03,27,9.50
2008,07,11,03,28,9.50
2008,07,11,03,29,9.50
2008,07,11,03,30,9.50
2008,07,11,03,31,9.50
2008,07,11,03,32,9.50
2008,07,11,03,33,9.40
2008,07,11,03,34,9.40
2008,07,11,03,35,9.40
2008,07,11,03,36,9.40
2008,07,11,03,37,9.40
2008,07,11,03,38,9.30
2008,07,11,03,39,9.30
2008,07,11,03,40,9.30
2008,07,11,03,41,9.30
2008,07,11,03,42,9.30
2008,07,11,03,43,9.20
2008,07,11,03,44,9.20
2008,07,11,03,45,9.20
2008,07,11,03,46,9.20
2008,07,11,03,47,9.20
2008,07,11,03,48,9.20
2008,07,11,03,49,9.20
2008,07,11,03,50,9.20
2008,07,11,03,51,9.20
2008,07,11,03,52,9.20
2008,07,11,03,53,9.20
2008,07,11,03,54,9.20
2008,07,11,03,55,9.10
2008,07,11,03,56,9.10
2008,07,11,03,57,9.10
2008,07,11,03,58,9.10
2008,07,11,03,59,9.00
2008,07,11,04,00,9.00
2008,07,11,04,01,9.00
2008,07,11,04,02,9.00
2008,07,11,04,03,9.00
2008,07,11,04,04,9.00
2008,07,11,04,05,9.00
2008,07,11,04,06,9.00
2008,07,11,04,07,9.00
2008,07,11,04,08,9.00
2008,07,11,04,09,9.00
2008,07,11,04,10,8.90
2008,07,11,04,11,8.90
2008,07,11,04,12,8.90
2008,07,11,04,13,8.90
2008,07,11,04,14,8.90
2008,07,11,04,15,8.90
2008,07,11,04,16,8.80
2008,07,11,04,17,8.80
2008,07,11,04,18,8.80
2008,07,11,04,19,8.80
2008,07,11,04,20,8.90
2008,07,11,04,21,8.90
2008,07,11,04,22,8.90
2008,07,11,04,23,8.90
2008,07,11,04,24,8.90
2008,07,11,04,25,8.80
2008,07,11,04,26,8.80
2008,07,11,04,27,8.80
2008,07,11,04,28,8.80
2008,07,11,04,29,8.70
2008,07,11,04,30,8.80
2008,07,11,04,31,8.80
2008,07,11,04,32,8.80
2008,07,11,04,33,8.80
2008,07,11,04,34,8.80
2008,07,11,04,35,8.80
2008,07,11,04,36,8.80
2008,07,11,04,37,8.80
2008,07,11,04,38,8.80
2008,07,11,04,39,8.80
2008,07,11,04,40,8.80
2008,07,11,04,41,8.80
2008,07,11,04,42,8.80
2008,07,11,04,43,8.80
2008,07,11,04,44,8.80
2008,07,11,04,45,8.70
2008,07,11,04,46,8.70
2008,07,11,04,47,8.70
2008,07,11,04,48,8.70
2008,07,11,04,49,8.70
2008,07,11,04,50,8.70
2008,07,11,04,51,8.70
2008,07,11,04,52,8.70
2008,07,11,04,53,8.70
2008,07,11,04,54,8.70
2008,07,11,04,55,8.70
2008,07,11,04,56,8.70
2008,07,11,04,57,8.70
2008,07,11,04,58,8.70
2008,07,11,04,59,8.70
2008,07,11,05,00,8.70
2008,07,11,05,01,8.70
2008,07,11,05,02,8.80
2008,07,11,05,03,8.90
2008,07,11,05,04,9.00
2008,07,11,05,05,9.10
2008,07,11,05,06,9.20
2008,07,11,05,07,9.20
2008,07,11,05,08,9.20
2008,07,11,05,09,9.20
2008,07,11,05,10,9.20
2008,07,11,05,11,9.20
2008,07,11,05,12,9.20
2008,07,11,05,13,9.10
2008,07,11,05,14,9.10
2008,07,11,05,15,9.00
2008,07,11,05,16,9.00
2008,07,11,05,17,9.00
2008,07,11,05,18,8.90
2008,07,11,05,19,8.90
2008,07,11,05,20,8.80
2008,07,11,05,21,8.80
2008,07,11,05,22,8.90
2008,07,11,05,23,8.90
2008,07,11,05,24,8.90
2008,07,11,05,25,9.00
2008,07,11,05,26,9.00
2008,07,11,05,27,9.00
2008,07,11,05,28,9.10
2008,07,11,05,29,9.20
2008,07,11,05,30,9.20
2008,07,11,05,31,9.20
2008,07,11,05,32,9.20
2008,07,11,05,33,9.10
2008,07,11,05,34,9.10
2008,07,11,05,35,9.10
2008,07,11,05,36,9.00
2008,07,11,05,37,9.00
2008,07,11,05,38,9.00
2008,07,11,05,39,9.00
2008,07,11,05,40,9.00
2008,07,11,05,41,9.00
2008,07,11,05,42,9.00
2008,07,11,05,43,9.00
2008,07,11,05,44,9.00
2008,07,11,05,45,9.00
2008,07,11,05,46,9.00
2008,07,11,05,47,9.00
2008,07,11,05,48,9.00
2008,07,11,05,49,9.00
2008,07,11,05,50,9.00
2008,07,11,05,51,9.00
2008,07,11,05,52,9.10
2008,07,11,05,53,9.10
2008,07,11,05,54,9.00
2008,07,11,05,55,9.00
2008,07,11,05,56,9.00
2008,07,11,05,57,8.90
2008,07,11,05,58,8.90
2008,07,11,05,59,8.90
2008,07,11,06,00,8.90
2008,07,11,06,01,8.90
2008,07,11,06,02,8.90
2008,07,11,06,03,8.90
2008,07,11,06,04,8.90
2008,07,11,06,05,8.90
2008,07,11,06,06,8.90
2008,07,11,06,07,9.00
2008,07,11,06,08,9.00
2008,07,11,06,09,9.10
2008,07,11,06,10,9.10
2008,07,11,06,11,9.10
2008,07,11,06,12,9.20
2008,07,11,06,13,9.20
2008,07,11,06,14,9.20
2008,07,11,06,15,9.30
2008,07,11,06,16,9.30
2008,07,11,06,17,9.40
2008,07,11,06,18,9.40
2008,07,11,06,19,9.40
2008,07,11,06,20,9.40
2008,07,11,06,21,9.50
2008,07,11,06,22,9.50
2008,07,11,06,23,9.50
2008,07,11,06,24,9.60
2008,07,11,06,25,9.60
2008,07,11,06,26,9.70
2008,07,11,06,27,9.70
2008,07,11,06,28,9.70
2008,07,11,06,29,9.70
2008,07,11,06,30,9.80
2008,07,11,06,31,9.80
2008,07,11,06,32,9.90
2008,07,11,06,33,9.90
2008,07,11,06,34,9.90
2008,07,11,06,35,9.90
2008,07,11,06,36,9.90
2008,07,11,06,37,9.90
2008,07,11,06,38,9.90
2008,07,11,06,39,9.90
2008,07,11,06,40,10.00
2008,07,11,06,41,10.10
2008,07,11,06,42,10.10
2008,07,11,06,43,10.20
2008,07,11,06,44,10.30
2008,07,11,06,45,10.30
2008,07,11,06,46,10.40
2008,07,11,06,47,10.40
2008,07,11,06,48,10.60
2008,07,11,06,49,10.60
2008,07,11,06,50,10.60
2008,07,11,06,51,10.70
2008,07,11,06,52,10.70
2008,07,11,06,53,10.80
2008,07,11,06,54,10.80
2008,07,11,06,55,10.80
2008,07,11,06,56,10.80
2008,07,11,06,57,10.90
2008,07,11,06,58,10.90
2008,07,11,06,59,10.90
2008,07,11,07,00,10.90
2008,07,11,07,01,11.10
2008,07,11,07,02,11.10
2008,07,11,07,03,11.10
2008,07,11,07,04,11.10
2008,07,11,07,05,11.10
2008,07,11,07,06,11.10
2008,07,11,07,07,11.10
2008,07,11,07,08,11.10
2008,07,11,07,09,11.10
2008,07,11,07,10,11.10
2008,07,11,07,11,11.10
2008,07,11,07,12,11.20
2008,07,11,07,13,11.20
2008,07,11,07,14,11.30
2008,07,11,07,15,11.30
2008,07,11,07,16,11.30
2008,07,11,07,17,11.40
2008,07,11,07,18,11.40
2008,07,11,07,19,11.50
2008,07,11,07,20,11.60
2008,07,11,07,21,11.60
2008,07,11,07,22,11.60
2008,07,11,07,23,11.70
2008,07,11,07,24,11.70
2008,07,11,07,25,11.80
2008,07,11,07,26,11.80
2008,07,11,07,27,11.80
2008,07,11,07,28,11.90
2008,07,11,07,29,11.90
2008,07,11,07,30,12.00
2008,07,11,07,31,12.10
2008,07,11,07,32,12.20
2008,07,11,07,33,12.30
2008,07,11,07,34,12.40
2008,07,11,07,35,12.50
2008,07,11,07,36,12.50
2008,07,11,07,37,12.60
2008,07,11,07,38,12.60
2008,07,11,07,39,12.70
2008,07,11,07,40,12.80
2008,07,11,07,41,12.80
2008,07,11,07,42,12.80
2008,07,11,07,43,12.80
2008,07,11,07,44,12.90
2008,07,11,07,45,12.90
2008,07,11,07,46,12.90
2008,07,11,07,47,12.90
2008,07,11,07,48,12.90
2008,07,11,07,49,12.90
2008,07,11,07,50,13.00
2008,07,11,07,51,13.00
2008,07,11,07,52,13.10
2008,07,11,07,53,13.20
2008,07,11,07,54,13.20
2008,07,11,07,55,13.30
2008,07,11,07,56,13.40
2008,07,11,07,57,13.50
2008,07,11,07,58,13.50
2008,07,11,07,59,13.60
2008,07,11,08,00,13.60
2008,07,11,08,01,13.60
2008,07,11,08,02,13.60
2008,07,11,08,03,13.60
2008,07,11,08,04,13.60
2008,07,11,08,05,13.60
2008,07,11,08,06,13.70
2008,07,11,08,07,13.80
2008,07,11,08,08,13.90
2008,07,11,08,09,13.90
2008,07,11,08,10,14.00
2008,07,11,08,11,14.00
2008,07,11,08,12,14.00
2008,07,11,08,13,14.10
2008,07,11,08,14,14.10
2008,07,11,08,15,14.20
2008,07,11,08,16,14.20
2008,07,11,08,17,14.20
2008,07,11,08,18,14.20
2008,07,11,08,19,14.00
2008,07,11,08,20,13.90
2008,07,11,08,21,13.80
2008,07,11,08,22,13.70
2008,07,11,08,23,13.70
2008,07,11,08,24,13.70
2008,07,11,08,25,13.60
2008,07,11,08,26,13.40
2008,07,11,08,27,13.20
2008,07,11,08,28,13.10
2008,07,11,08,29,13.10
2008,07,11,08,30,13.00
2008,07,11,08,31,13.00
2008,07,11,08,32,12.90
2008,07,11,08,33,12.90
2008,07,11,08,34,13.00
2008,07,11,08,35,13.00
2008,07,11,08,36,13.10
2008,07,11,08,37,13.20
2008,07,11,08,38,13.40
2008,07,11,08,39,13.50
2008,07,11,08,40,13.60
2008,07,11,08,41,13.70
2008,07,11,08,42,13.80
2008,07,11,08,43,13.90
2008,07,11,08,44,14.00
2008,07,11,08,45,14.20
2008,07,11,08,46,14.20
2008,07,11,08,47,14.30
2008,07,11,08,48,14.40
2008,07,11,08,49,14.50
2008,07,11,08,50,14.60
2008,07,11,08,51,14.60
2008,07,11,08,52,14.70
2008,07,11,08,53,14.70
2008,07,11,08,54,14.80
2008,07,11,08,55,14.80
2008,07,11,08,56,14.90
2008,07,11,08,57,14.90
2008,07,11,08,58,14.90
2008,07,11,08,59,14.90
2008,07,11,09,00,15.00
2008,07,11,09,01,15.00
2008,07,11,09,02,15.10
2008,07,11,09,03,15.10
2008,07,11,09,04,15.10
2008,07,11,09,05,15.20
2008,07,11,09,06,15.20
2008,07,11,09,07,15.30
2008,07,11,09,08,15.30
2008,07,11,09,09,15.40
2008,07,11,09,10,15.50
2008,07,11,09,11,15.50
2008,07,11,09,12,15.60
2008,07,11,09,13,15.60
2008,07,11,09,14,15.60
2008,07,11,09,15,15.70
2008,07,11,09,16,15.70
2008,07,11,09,17,15.70
2008,07,11,09,18,15.80
2008,07,11,09,19,15.80
2008,07,11,09,20,15.80
2008,07,11,09,21,15.90
2008,07,11,09,22,16.00
2008,07,11,09,23,16.10
2008,07,11,09,24,16.10
2008,07,11,09,25,16.10
2008,07,11,09,26,16.20
2008,07,11,09,27,16.30
2008,07,11,09,28,16.30
2008,07,11,09,29,16.40
2008,07,11,09,30,16.40
2008,07,11,09,31,16.50
2008,07,11,09,32,16.60
2008,07,11,09,33,16.60
2008,07,11,09,34,16.70
2008,07,11,09,35,16.70
2008,07,11,09,36,16.70
2008,07,11,09,37,16.70
2008,07,11,09,38,16.80
2008,07,11,09,39,16.80
2008,07,11,09,40,16.80
2008,07,11,09,41,16.80
2008,07,11,09,42,16.80
2008,07,11,09,43,16.80
2008,07,11,09,44,16.80
2008,07,11,09,45,16.70
2008,07,11,09,46,16.70
2008,07,11,09,47,16.70
2008,07,11,09,48,16.70
2008,07,11,09,49,16.70
2008,07,11,09,50,16.70
2008,07,11,09,51,16.70
2008,07,11,09,52,16.70
2008,07,11,09,53,16.70
2008,07,11,09,54,16.70
2008,07,11,09,55,16.70
2008,07,11,09,56,16.80
2008,07,11,09,57,16.90
2008,07,11,09,58,17.00
2008,07,11,09,59,17.00
2008,07,11,10,00,17.10
2008,07,11,10,01,17.10
2008,07,11,10,02,17.20
2008,07,11,10,03,17.30
2008,07,11,10,04,17.30
2008,07,11,10,05,17.30
2008,07,11,10,06,17.40
2008,07,11,10,07,17.40
2008,07,11,10,08,17.40
2008,07,11,10,09,17.40
2008,07,11,10,10,17.40
2008,07,11,10,11,17.50
2008,07,11,10,12,17.50
2008,07,11,10,13,17.50
2008,07,11,10,14,17.50
2008,07,11,10,15,17.60
2008,07,11,10,16,17.60
2008,07,11,10,17,17.60
2008,07,11,10,18,17.70
2008,07,11,10,19,17.70
2008,07,11,10,20,17.70
2008,07,11,10,21,17.70
2008,07,11,10,22,17.70
2008,07,11,10,23,17.70
2008,07,11,10,24,17.80
2008,07,11,10,25,17.90
2008,07,11,10,26,17.90
2008,07,11,10,27,17.90
2008,07,11,10,28,17.90
2008,07,11,10,29,18.00
2008,07,11,10,30,18.10
2008,07,11,10,31,18.10
2008,07,11,10,32,18.10
2008,07,11,10,33,18.10
2008,07,11,10,34,18.00
2008,07,11,10,35,17.90
2008,07,11,10,36,17.90
2008,07,11,10,37,17.90
2008,07,11,10,38,18.00
2008,07,11,10,39,18.10
2008,07,11,10,40,18.10
2008,07,11,10,41,18.20
2008,07,11,10,42,18.20
2008,07,11,10,43,18.20
2008,07,11,10,44,18.20
2008,07,11,10,45,18.20
2008,07,11,10,46,18.30
2008,07,11,10,47,18.40
2008,07,11,10,48,18.40
2008,07,11,10,49,18.40
2008,07,11,10,50,18.40
2008,07,11,10,51,18.50
2008,07,11,10,52,18.50
2008,07,11,10,53,18.60
2008,07,11,10,54,18.60
2008,07,11,10,55,18.60
2008,07,11,10,56,18.70
2008,07,11,10,57,18.70
2008,07,11,10,58,18.80
2008,07,11,10,59,18.90
2008,07,11,11,00,18.90
2008,07,11,11,01,18.90
2008,07,11,11,02,18.90
2008,07,11,11,03,18.80
2008,07,11,11,04,18.80
2008,07,11,11,05,18.80
2008,07,11,11,06,18.80
2008,07,11,11,07,18.90
2008,07,11,11,08,18.90
2008,07,11,11,09,18.90
2008,07,11,11,10,19.00
2008,07,11,11,11,19.10
2008,07,11,11,12,19.10
2008,07,11,11,13,19.10
2008,07,11,11,14,19.30
2008,07,11,11,15,19.40
2008,07,11,11,16,19.40
2008,07,11,11,17,19.50
2008,07,11,11,18,19.60
2008,07,11,11,19,19.60
2008,07,11,11,20,19.60
2008,07,11,11,21,19.60
2008,07,11,11,22,19.60
2008,07,11,11,23,19.70
2008,07,11,11,24,19.70
2008,07,11,11,25,19.80
2008,07,11,11,26,19.80
2008,07,11,11,27,19.80
2008,07,11,11,28,19.80
2008,07,11,11,29,19.80
2008,07,11,11,30,19.90
2008,07,11,11,31,19.90
2008,07,11,11,32,19.90
2008,07,11,11,33,20.00
2008,07,11,11,34,20.10
2008,07,11,11,35,20.20
2008,07,11,11,36,20.20
2008,07,11,11,37,20.20
2008,07,11,11,38,20.30
2008,07,11,11,39,20.30
2008,07,11,11,40,20.30
2008,07,11,11,41,20.30
2008,07,11,11,42,20.30
2008,07,11,11,43,20.40
2008,07,11,11,44,20.40
2008,07,11,11,45,20.40
2008,07,11,11,46,20.30
2008,07,11,11,47,20.30
2008,07,11,11,48,20.30
2008,07,11,11,49,20.40
2008,07,11,11,50,20.40
2008,07,11,11,51,20.40
2008,07,11,11,52,20.50
2008,07,11,11,53,20.60
2008,07,11,11,54,20.60
2008,07,11,11,55,20.70
2008,07,11,11,56,20.80
2008,07,11,11,57,20.90
2008,07,11,11,58,20.90
2008,07,11,11,59,21.00
2008,07,11,12,00,21.00
2008,07,11,12,01,21.10
2008,07,11,12,02,21.10
2008,07,11,12,03,21.10
2008,07,11,12,04,21.10
2008,07,11,12,05,21.10
2008,07,11,12,06,21.10
2008,07,11,12,07,21.20
2008,07,11,12,08,21.30
2008,07,11,12,09,21.30
2008,07,11,12,10,21.30
2008,07,11,12,11,21.40
2008,07,11,12,12,21.40
2008,07,11,12,13,21.50
2008,07,11,12,14,21.60
2008,07,11,12,15,21.60
2008,07,11,12,16,21.70
2008,07,11,12,17,21.70
2008,07,11,12,18,21.60
2008,07,11,12,19,21.60
2008,07,11,12,20,21.50
2008,07,11,12,21,21.40
2008,07,11,12,22,21.40
2008,07,11,12,23,21.40
2008,07,11,12,24,21.40
2008,07,11,12,25,21.40
2008,07,11,12,26,21.40
2008,07,11,12,27,21.40
2008,07,11,12,28,21.40
2008,07,11,12,29,21.50
2008,07,11,12,30,21.60
2008,07,11,12,31,21.60
2008,07,11,12,32,21.60
2008,07,11,12,33,21.60
2008,07,11,12,34,21.60
2008,07,11,12,35,21.60
2008,07,11,12,36,21.60
2008,07,11,12,37,21.60
2008,07,11,12,38,21.60
2008,07,11,12,39,21.60
2008,07,11,12,40,21.60
2008,07,11,12,41,21.60
2008,07,11,12,42,21.60
2008,07,11,12,43,21.60
2008,07,11,12,44,21.40
2008,07,11,12,45,21.40
2008,07,11,12,46,21.50
2008,07,11,12,47,21.60
2008,07,11,12,48,21.60
2008,07,11,12,49,21.60
2008,07,11,12,50,21.70
2008,07,11,12,51,21.70
2008,07,11,12,52,21.80
2008,07,11,12,53,21.90
2008,07,11,12,54,22.00
2008,07,11,12,55,22.00
2008,07,11,12,56,22.10
2008,07,11,12,57,22.10
2008,07,11,12,58,22.20
2008,07,11,12,59,22.20
2008,07,11,13,00,22.20
2008,07,11,13,01,22.20
2008,07,11,13,02,22.20
2008,07,11,13,03,22.20
2008,07,11,13,04,22.30
2008,07,11,13,05,22.20
2008,07,11,13,06,22.20
2008,07,11,13,07,22.10
2008,07,11,13,08,22.10
2008,07,11,13,09,22.10
2008,07,11,13,10,22.10
2008,07,11,13,11,22.00
2008,07,11,13,12,22.00
2008,07,11,13,13,22.00
2008,07,11,13,14,21.90
2008,07,11,13,15,21.90
2008,07,11,13,16,21.80
2008,07,11,13,17,21.80
2008,07,11,13,18,21.80
2008,07,11,13,19,21.80
2008,07,11,13,20,21.80
2008,07,11,13,21,21.80
2008,07,11,13,22,21.80
2008,07,11,13,23,21.90
2008,07,11,13,24,21.80
2008,07,11,13,25,21.80
2008,07,11,13,26,21.60
2008,07,11,13,27,21.60
2008,07,11,13,28,21.60
2008,07,11,13,29,21.60
2008,07,11,13,30,21.60
2008,07,11,13,31,21.60
2008,07,11,13,32,21.60
2008,07,11,13,33,21.60
2008,07,11,13,34,21.60
2008,07,11,13,35,21.70
2008,07,11,13,36,21.70
2008,07,11,13,37,21.80
2008,07,11,13,38,21.80
2008,07,11,13,39,21.80
2008,07,11,13,40,21.90
2008,07,11,13,41,21.90
2008,07,11,13,42,21.80
2008,07,11,13,43,21.80
2008,07,11,13,44,21.80
2008,07,11,13,45,21.80
2008,07,11,13,46,21.80
2008,07,11,13,47,21.80
2008,07,11,13,48,21.80
2008,07,11,13,49,21.80
2008,07,11,13,50,21.80
2008,07,11,13,51,21.80
2008,07,11,13,52,21.80
2008,07,11,13,53,21.80
2008,07,11,13,54,21.80
2008,07,11,13,55,21.80
2008,07,11,13,56,21.80
2008,07,11,13,57,21.90
2008,07,11,13,58,21.90
2008,07,11,13,59,21.90
2008,07,11,14,00,22.00
2008,07,11,14,01,22.00
2008,07,11,14,02,22.00
2008,07,11,14,03,22.00
2008,07,11,14,04,22.00
2008,07,11,14,05,22.10
2008,07,11,14,06,22.10
2008,07,11,14,07,22.20
2008,07,11,14,08,22.10
2008,07,11,14,09,22.10
2008,07,11,14,10,22.10
2008,07,11,14,11,22.10
2008,07,11,14,12,22.10
2008,07,11,14,13,22.20
2008,07,11,14,14,22.20
2008,07,11,14,15,22.30
2008,07,11,14,16,22.30
2008,07,11,14,17,22.40
2008,07,11,14,18,22.40
2008,07,11,14,19,22.50
2008,07,11,14,20,22.50
2008,07,11,14,21,22.60
2008,07,11,14,22,22.70
2008,07,11,14,23,22.70
2008,07,11,14,24,22.80
2008,07,11,14,25,22.80
2008,07,11,14,26,22.80
2008,07,11,14,27,22.80
2008,07,11,14,28,22.80
2008,07,11,14,29,22.80
2008,07,11,14,30,22.80
2008,07,11,14,31,22.90
2008,07,11,14,32,22.90
2008,07,11,14,33,22.90
2008,07,11,14,34,22.90
2008,07,11,14,35,22.90
2008,07,11,14,36,22.90
2008,07,11,14,37,22.90
2008,07,11,14,38,22.90
2008,07,11,14,39,22.90
2008,07,11,14,40,22.90
2008,07,11,14,41,22.90
2008,07,11,14,42,23.00
2008,07,11,14,43,23.10
2008,07,11,14,44,23.20
2008,07,11,14,45,23.30
2008,07,11,14,46,23.30
2008,07,11,14,47,23.30
2008,07,11,14,48,23.30
2008,07,11,14,49,23.30
2008,07,11,14,50,23.30
2008,07,11,14,51,23.30
2008,07,11,14,52,23.30
2008,07,11,14,53,23.40
2008,07,11,14,54,23.40
2008,07,11,14,55,23.60
2008,07,11,14,56,23.60
2008,07,11,14,57,23.70
2008,07,11,14,58,23.70
2008,07,11,14,59,23.70
2008,07,11,15,00,23.80
2008,07,11,15,01,23.90
2008,07,11,15,02,24.10
2008,07,11,15,03,24.10
2008,07,11,15,04,24.20
2008,07,11,15,05,24.30
2008,07,11,15,06,24.40
2008,07,11,15,07,24.50
2008,07,11,15,08,24.50
2008,07,11,15,09,24.60
2008,07,11,15,10,24.70
2008,07,11,15,11,24.70
2008,07,11,15,12,24.60
2008,07,11,15,13,24.40
2008,07,11,15,14,24.20
2008,07,11,15,15,23.90
2008,07,11,15,16,23.60
2008,07,11,15,17,23.30
2008,07,11,15,18,22.70
2008,07,11,15,19,22.30
2008,07,11,15,20,21.90
2008,07,11,15,21,21.50
2008,07,11,15,22,21.20
2008,07,11,15,23,20.90
2008,07,11,15,24,20.70
2008,07,11,15,25,20.50
2008,07,11,15,26,20.20
2008,07,11,15,27,20.00
2008,07,11,15,28,19.70
2008,07,11,15,29,19.40
2008,07,11,15,30,19.20
2008,07,11,15,31,19.30
2008,07,11,15,32,19.40
2008,07,11,15,33,19.50
2008,07,11,15,34,19.40
2008,07,11,15,35,19.30
2008,07,11,15,36,19.10
2008,07,11,15,37,19.00
2008,07,11,15,38,19.00
2008,07,11,15,39,19.10
2008,07,11,15,40,19.20
2008,07,11,15,41,19.40
2008,07,11,15,42,19.20
2008,07,11,15,43,19.10
2008,07,11,15,44,19.00
2008,07,11,15,45,18.90
2008,07,11,15,46,18.90
2008,07,11,15,47,19.00
2008,07,11,15,48,19.00
2008,07,11,15,49,19.00
2008,07,11,15,50,19.10
2008,07,11,15,51,19.30
2008,07,11,15,52,19.30
2008,07,11,15,53,19.10
2008,07,11,15,54,19.10
2008,07,11,15,55,19.10
2008,07,11,15,56,19.10
2008,07,11,15,57,18.90
2008,07,11,15,58,18.90
2008,07,11,15,59,18.80
2008,07,11,16,00,18.80
2008,07,11,16,01,18.90
2008,07,11,16,02,19.00
2008,07,11,16,03,19.10
2008,07,11,16,04,19.10
2008,07,11,16,05,19.10
2008,07,11,16,06,19.10
2008,07,11,16,07,19.20
2008,07,11,16,08,19.40
2008,07,11,16,09,19.50
2008,07,11,16,10,19.60
2008,07,11,16,11,19.80
2008,07,11,16,12,19.90
2008,07,11,16,13,20.00
2008,07,11,16,14,20.10
2008,07,11,16,15,20.10
2008,07,11,16,16,20.10
2008,07,11,16,17,20.10
2008,07,11,16,18,20.00
2008,07,11,16,19,19.80
2008,07,11,16,20,19.80
2008,07,11,16,21,19.80
2008,07,11,16,22,19.70
2008,07,11,16,23,19.50
2008,07,11,16,24,19.40
2008,07,11,16,25,19.30
2008,07,11,16,26,19.10
2008,07,11,16,27,19.10
2008,07,11,16,28,19.10
2008,07,11,16,29,19.10
2008,07,11,16,30,19.10
2008,07,11,16,31,19.30
2008,07,11,16,32,19.40
2008,07,11,16,33,19.50
2008,07,11,16,34,19.60
2008,07,11,16,35,19.70
2008,07,11,16,36,19.70
2008,07,11,16,37,19.70
2008,07,11,16,38,19.70
2008,07,11,16,39,19.60
2008,07,11,16,40,19.60
2008,07,11,16,41,19.50
2008,07,11,16,42,19.60
2008,07,11,16,43,19.60
2008,07,11,16,44,19.70
2008,07,11,16,45,19.60
2008,07,11,16,46,19.70
2008,07,11,16,47,19.80
2008,07,11,16,48,19.80
2008,07,11,16,49,19.90
2008,07,11,16,50,19.90
2008,07,11,16,51,19.90
2008,07,11,16,52,20.00
2008,07,11,16,53,20.10
2008,07,11,16,54,20.10
2008,07,11,16,55,20.20
2008,07,11,16,56,20.20
2008,07,11,16,57,20.40
2008,07,11,16,58,20.40
2008,07,11,16,59,20.30
2008,07,11,17,00,20.20
2008,07,11,17,01,20.30
2008,07,11,17,02,20.30
2008,07,11,17,03,20.30
2008,07,11,17,04,20.30
2008,07,11,17,05,20.30
2008,07,11,17,06,20.30
2008,07,11,17,07,20.30
2008,07,11,17,08,20.20
2008,07,11,17,09,20.20
2008,07,11,17,10,20.20
2008,07,11,17,11,20.20
2008,07,11,17,12,20.10
2008,07,11,17,13,19.90
2008,07,11,17,14,19.80
2008,07,11,17,15,19.70
2008,07,11,17,16,19.60
2008,07,11,17,17,19.50
2008,07,11,17,18,19.60
2008,07,11,17,19,19.60
2008,07,11,17,20,19.60
2008,07,11,17,21,19.50
2008,07,11,17,22,19.40
2008,07,11,17,23,19.30
2008,07,11,17,24,19.30
2008,07,11,17,25,19.20
2008,07,11,17,26,19.10
2008,07,11,17,27,19.10
2008,07,11,17,28,19.10
2008,07,11,17,29,19.10
2008,07,11,17,30,19.10